Tracking 27380 objects as of 6-Jun-2023
HD Live streaming from Space Station
objects crossing your sky now

OPS 4682 DEB

Track OPS 4682 DEB now!
10-day predictions


NORAD ID: 38401
Int'l Code: 1965-027DE
Perigee: 1,266.6 km
Apogee: 1,313.4 km
Inclination: 90.2 °
Period: 111.2 minutes
Semi major axis: 7660 km
RCS: 0.0121 m2 (small)
Launch date: April 3, 1965
Source: United States (US)
Launch site: AIR FORCE WESTERN TEST RANGE (AFWTR)

Note: This is SATELLITE DEBRIS
Your satellite tracking list
Your tracking list is empty




NASA's NSSDC Master Catalog

Two Line Element Set (TLE):
1 38401U 65027DE  23157.45536838  .00000081  00000-0  26474-3 0  9991
2 38401  90.2491 343.9722 0030508 209.0896 150.8525 12.94722266185194
Source of the keplerian elements: AFSPC